Weather in Onega

Russia / Arkhangel'skaya Oblast'     63˚54′52″N   38˚05′11″E
temp.,
°C
wind,
m/s
gust,
m/s
humid.,
%
clouds,
%
prec.,
mm/h
press.,
hPa
HPBL,
m
30 november, mon
mon3000:00−7˚sse579299 0.0 1034298
03:00−6˚sse689499 0.1 1034352
06:00−2˚se4791100 0.1 1032308
09:00sse7119095 0.1 1030535
12:00+1˚sse7109299 0.1 1029541
15:00+1˚sse8129399 0.1 1028444
18:00+1˚sse7119598 0.0 1026530
21:00+1˚sse7119799 0.3 1024546
1 december, tue
tue100:00+1˚sse81288100 0.2 1023664
03:00s71285100 0.2 1022666
06:00s71283100 0.0 1021716
09:00+1˚s81383100 0.1 1020799
12:00+1˚ssw71281100 0.0 10201166
15:00−1˚ssw7117991 0.0 1021764
18:00−1˚sw798187 0.1 1021970
21:00sw797894 0.1 1023916
2 december, wed
wed200:00sw7108095 0.1 1023937
03:00sw6109697 0.4 1024608
06:00ssw6897100 1.0 1024434
09:00+1˚ssw6996100 1.6 1026364
12:00+2˚sw5798100 0.5 1028334
15:00+1˚sw4798100 1.5 1029378
18:00+1˚ssw589795 0.2 1029376
21:00+1˚ssw698997 0.4 1030547
3 december, thu
thu300:00+1˚ssw698597 0.0 1031613
03:00s688895 0.0 1031469
06:00s588774 0.0 1031498
09:00s698876 0.0 1031474
12:00ssw688491 0.0 1032638
15:00−2˚sse678793 0.0 1032409
18:00−3˚sse688860 0.0 1031421
21:00−4˚s689074 0.0 1031488
4 december, fri
fri400:00−3˚s5785100 0.0 1031593
03:00−3˚sse678299 0.1 1030534
06:00−5˚sse579049 0.0 1030326
09:00−5˚sse578764 0.0 1030338
12:00−5˚sse5789100 0.0 1030335
15:00−5˚sse579098 0.1 1030329
18:00−4˚s569096 0.1 1030338
21:00−4˚sse569097 0.2 1030301